Wetbulb
44.40 39.52 36.50 38.76 40.35 41.21 40.61 38.91 38.53 41.73 44.89 42.36 42.20 42.18 44.86 47.18 45.66 45.49 47.07 47.12 47.46 48.74 50.60 51.43 67.69 69.22 69.86 70.27 69.56 69.67 71.12 70.85 71.06 69.96 68.82 68.86 68.19 67.67 66.70 66.34 65.86 64.66 62.97 63.29
40.84 36.82 41.96 43.17 42.66 42.13 41.57 39.25 38.97 41.26 44.56 42.69 42.39 41.70 44.33 45.35 45.96 46.87 46.05 46.50 47.50 47.05 49.24 50.59 66.06 68.39 68.87 69.49 70.10 69.98 71.02 71.43 71.32 70.73 69.93 70.15 68.27 65.92 67.45 64.68 64.96 63.80 61.79 61.78
39.04 42.51 46.28 44.34 42.62 41.52 40.66 39.41 39.99 39.94 44.01 42.96 40.40 39.19 40.69 44.76 45.46 47.11 47.91 48.06 48.17 48.80 49.08 50.10 65.19 67.81 68.48 69.18 69.90 70.16 70.50 71.47 71.18 70.41 69.88 69.62 65.66 63.50 62.86 62.58 61.96 61.33 61.45 61.89
41.20 45.25 45.08 44.03 42.46 43.94 39.10 43.96 43.81 42.48 39.26 34.55 40.17 34.86 37.33 41.62 43.24 44.89 45.88 45.91 47.20 48.33 48.56 50.28 62.83 67.77 68.10 68.40 69.71 70.56 70.75 71.10 71.27 70.10 69.77 69.45 66.91 64.30 63.79 63.97 60.82 60.85 61.20 61.97
41.58 43.01 43.01 42.18 43.26 45.25 41.79 45.83 44.02 43.22 38.84 35.51 36.43 32.48 35.79 39.52 41.41 43.37 45.13 46.90 48.10 47.95 47.93 48.40 61.90 67.61 68.74 69.19 68.96 70.05 70.53 70.95 70.93 70.05 70.13 69.57 69.15 64.02 63.20 62.10 60.31 59.62 59.46 61.50
43.23 46.64 45.51 44.41 46.62 46.17 46.80 42.92 41.13 38.52 35.64 32.22 34.90 34.61 33.30 37.98 41.39 43.43 46.40 48.27 50.81 52.09 53.61 53.58 60.96 67.59 68.66 69.35 69.13 69.16 69.91 70.10 70.48 69.92 69.53 69.24 68.81 62.16 61.84 60.91 60.39 60.20 59.50 60.06
41.00 42.32 45.91 46.43 40.89 42.43 42.23 38.81 32.00 29.80 29.27 28.94 36.82 34.25 35.09 44.16 48.56 47.59 46.14 47.13 48.19 48.70 54.04 57.64 58.45 64.44 67.46 67.85 68.01 67.97 68.03 67.08 68.04 67.75 66.39 66.30 67.23 62.69 61.89 61.16 61.00 60.50 60.74 59.61
35.50 35.45 42.78 43.98 39.82 36.72 39.25 40.15 33.93 26.30 25.98 30.56 37.90 32.22 36.32 48.53 49.93 50.46 50.18 48.48 48.63 47.69 48.61 55.17 59.39 60.10 63.82 64.57 64.58 64.94 65.43 66.86 66.93 67.47 67.02 67.06 64.82 62.51 62.78 62.28 62.01 61.36 62.00 62.14
32.16 35.91 43.59 43.16 43.94 41.61 36.92 34.36 39.01 35.12 33.87 30.19 33.79 36.98 44.59 47.86 48.10 48.35 47.55 47.94 47.32 47.44 48.06 52.16 55.99 59.03 61.15 61.04 62.41 64.11 63.42 63.58 65.11 64.19 65.54 66.34 66.28 63.09 62.10 61.64 62.22 62.10 62.70 62.45
35.63 29.86 39.47 41.70 44.06 42.25 39.03 40.45 34.12 36.68 27.24 25.44 31.84 33.33 36.14 42.06 43.64 46.46 45.18 45.42 46.73 48.03 48.00 50.56 53.40 56.84 58.82 61.24 60.75 60.48 61.51 61.97 63.31 62.71 63.35 65.62 67.51 66.74 64.67 63.41 62.56 61.92 61.57 61.76
35.95 31.92 33.11 38.70 36.53 34.72 35.85 33.38 33.48 35.38 37.17 30.90 27.86 30.43 43.58 41.86 43.37 43.86 45.02 46.51 46.82 47.88 48.40 49.10 50.29 53.67 58.09 59.37 60.90 60.87 60.62 61.32 60.19 61.21 62.29 62.01 62.61 65.12 66.79 65.32 64.47 62.93 62.82 62.89
36.04 31.09 26.28 32.26 38.13 40.75 38.63 34.81 33.06 24.92 26.25 32.68 34.49 31.39 47.20 45.78 45.64 45.96 45.94 46.43 47.14 48.09 49.72 50.44 50.57 51.28 52.84 58.40 59.11 59.60 60.59 60.92 61.37 63.67 62.65 61.98 61.79 61.59 64.35 65.83 65.27 64.08 63.55 63.38
34.25 27.00 21.19 25.50 32.06 36.75 34.73 36.52 36.54 33.49 29.07 26.58 26.89 29.45 47.76 48.29 47.23 48.00 46.08 46.02 46.96 46.93 48.52 49.48 50.52 49.12 49.51 56.98 58.37 56.97 59.73 60.67 62.11 61.42 61.65 62.23 62.76 64.99 64.56 63.90 64.15 64.58 63.93 63.65
38.85 29.07 25.05 20.74 26.03 31.40 31.06 34.29 35.96 32.68 26.18 25.95 27.23 30.09 35.33 40.58 44.87 45.58 46.59 47.08 46.23 45.76 48.49 47.41 48.46 50.86 50.38 52.41 56.71 56.99 56.85 59.49 61.04 61.86 62.95 59.53 61.18 63.08 60.37 64.07 64.83 66.28 64.74 64.12
33.33 26.89 30.61 33.15 35.42 35.55 33.82 33.77 34.72 32.18 32.83 28.31 31.25 30.83 34.24 36.25 38.09 44.15 46.35 45.39 47.64 46.48 46.73 46.60 46.94 49.72 48.53 49.78 52.62 54.80 54.87 57.77 59.43 61.54 60.55 59.32 59.58 59.14 59.99 61.79 60.36 64.04 65.39 65.43
34.20 27.16 30.52 29.42 34.42 33.92 31.49 33.53 33.30 33.33 34.06 33.27 33.13 30.68 38.64 39.53 42.12 41.69 41.78 45.15 47.23 47.30 48.02 46.71 48.27 49.52 47.61 48.53 49.67 51.42 53.75 56.64 58.91 59.71 61.32 60.70 60.63 59.92 59.28 57.86 57.88 63.76 64.62 63.88
31.39 28.43 26.38 23.89 31.16 30.35 24.82 30.13 32.29 33.11 34.27 33.52 29.61 33.13 38.67 38.21 39.57 40.34 40.72 42.36 44.46 45.83 46.45 45.74 46.27 46.55 46.97 48.32 49.56 49.06 52.88 56.89 58.52 58.74 60.35 61.44 61.22 60.95 61.08 59.75 56.97 64.21 64.43 63.94
28.88 27.55 25.74 23.17 25.06 17.09 28.78 37.38 38.17 35.40 36.74 37.17 37.10 37.28 38.26 37.84 40.26 41.57 43.70 42.78 42.78 44.06 44.34 44.12 44.10 44.68 45.69 47.05 49.00 49.02 52.18 55.46 56.73 58.06 57.53 58.05 59.78 60.50 60.39 58.32 57.82 58.92 64.17 63.98
32.99 27.81 23.98 19.67 21.05 26.62 31.43 35.46 33.58 31.81 31.42 37.48 35.95 37.80 38.79 39.78 39.52 39.34 43.80 44.18 43.77 43.58 44.60 44.65 44.85 45.34 45.34 46.93 49.08 49.05 52.24 54.55 55.57 57.98 56.96 56.44 56.07 57.13 58.84 60.55 58.53 60.09 63.03 63.10
34.05 32.23 27.29 23.04 17.36 13.33 28.66 38.02 40.42 38.24 26.40 38.81 38.89 37.72 37.70 38.49 31.64 34.67 41.54 43.71 44.47 45.26 44.76 44.73 44.93 45.77 45.23 45.86 47.51 47.99 49.94 52.59 53.58 56.60 56.17 54.62 54.08 53.53 54.60 57.03 58.15 62.30 62.26 62.69
27.56 30.25 24.68 22.60 25.09 27.95 37.12 39.40 40.74 27.60 27.18 38.33 39.15 37.95 37.01 34.77 36.53 39.45 41.40 41.77 43.31 44.65 45.69 46.01 45.10 43.76 43.58 44.92 46.17 45.31 47.76 48.38 53.00 56.41 54.26 52.63 50.88 50.76 52.30 51.81 54.36 58.36 61.25 60.57
27.66 23.35 22.76 22.71 17.24 22.37 39.63 37.94 30.79 33.13 37.72 37.89 37.66 37.53 37.89 38.42 39.18 39.80 40.67 41.16 42.15 42.44 44.25 46.00 44.29 44.01 44.62 45.80 44.04 43.83 44.38 48.00 53.04 54.41 52.28 50.80 49.56 49.56 50.02 48.29 52.35 54.16 59.18 60.09
24.16 31.24 27.53 28.81 26.48 35.34 37.04 36.12 37.08 37.01 36.88 37.68 38.07 39.91 39.90 39.15 39.05 39.97 40.34 40.97 41.63 42.82 43.79 44.97 44.96 43.91 44.00 44.30 44.95 44.34 46.15 49.23 52.35 51.90 50.69 50.25 51.68 50.11 48.61 48.50 49.93 50.71 51.91 54.17
32.10 34.77 30.97 32.24 32.80 33.90 36.25 37.66 38.09 38.31 37.78 40.21 40.70 40.58 41.00 39.54 39.97 39.68 40.24 41.19 42.24 43.17 43.64 44.90 44.98 43.39 43.67 45.35 44.94 44.53 46.66 49.15 52.04 50.08 49.72 49.67 48.88 47.71 46.19 45.65 46.53 49.17 48.87 49.07
31.31 32.60 30.44 30.72 34.29 36.07 36.35 37.97 38.27 38.36 39.66 40.09 41.57 41.31 40.12 40.61 40.16 40.63 40.54 41.18 42.86 42.89 44.11 44.69 45.01 43.98 43.49 44.65 44.82 45.88 47.54 51.22 50.59 49.45 48.70 47.76 45.99 47.02 46.03 44.09 41.63 43.04 45.84 42.82
33.67 32.12 29.87 28.39 34.26 34.61 35.07 37.99 38.50 38.60 39.30 40.67 40.68 40.32 41.21 41.18 40.77 41.22 41.16 42.78 43.66 43.54 42.58 43.54 45.11 45.42 46.10 45.51 45.18 46.07 47.94 50.89 48.36 48.08 47.82 47.38 46.15 47.62 47.33 45.57 45.48 42.22 40.21 39.88
MSLP
1008.88 1009.98 1010.33 1010.68 1010.92 1010.92 1010.92 1010.73 1010.15 1008.81 1007.64 1007.69 1006.97 1006.58 1006.04 1005.19 1005.00 1004.66 1004.18 1003.92 1003.59 1003.60 1003.06 1002.90 1003.34 1003.56 1004.39 1004.89 1005.62 1006.38 1007.05 1007.61 1008.28 1008.80 1009.46 1010.37 1010.68 1011.57 1011.94 1012.45 1012.75 1012.96 1013.54 1014.00
1009.63 1009.89 1009.70 1009.72 1009.96 1010.22 1010.22 1010.06 1009.55 1008.67 1007.61 1007.32 1006.62 1006.55 1005.88 1005.41 1004.90 1004.34 1003.91 1003.90 1003.52 1003.66 1002.96 1002.75 1003.34 1003.68 1003.70 1004.43 1004.89 1005.60 1006.24 1006.88 1007.21 1007.88 1008.13 1008.91 1009.66 1010.75 1011.51 1012.14 1012.52 1012.76 1013.30 1013.69
1009.48 1009.16 1008.90 1009.27 1009.16 1009.53 1009.23 1009.21 1008.76 1008.48 1007.55 1006.76 1006.62 1006.30 1006.16 1005.34 1004.91 1004.40 1004.01 1003.67 1003.54 1003.39 1003.24 1002.70 1003.16 1003.58 1003.39 1003.58 1004.38 1004.83 1005.36 1006.00 1006.64 1007.29 1008.45 1009.04 1009.63 1010.34 1011.41 1012.14 1012.46 1012.70 1012.97 1013.34
1009.02 1008.40 1008.73 1008.63 1008.62 1008.44 1008.40 1007.72 1007.68 1007.78 1007.80 1007.59 1006.82 1006.61 1006.60 1005.90 1005.22 1004.82 1004.33 1004.15 1003.52 1003.00 1002.62 1002.29 1002.56 1003.28 1003.60 1003.00 1003.24 1003.72 1004.38 1005.00 1005.60 1006.40 1007.24 1008.08 1008.75 1009.47 1010.10 1011.05 1012.03 1012.71 1013.02 1013.30
1008.48 1008.33 1008.26 1008.17 1008.14 1007.95 1007.73 1007.30 1007.32 1007.50 1007.80 1007.74 1007.75 1007.92 1006.96 1006.74 1006.38 1005.47 1004.81 1004.32 1003.49 1002.84 1002.17 1001.86 1001.85 1001.92 1002.59 1002.85 1002.89 1003.14 1003.70 1004.47 1005.04 1006.05 1006.40 1007.41 1008.12 1008.88 1009.86 1011.11 1012.19 1012.76 1013.08 1013.25
1008.18 1007.85 1007.92 1007.46 1007.36 1007.62 1007.51 1007.41 1007.56 1007.95 1008.58 1008.28 1008.35 1008.27 1008.13 1007.78 1007.32 1006.53 1005.87 1006.25 1006.16 1005.14 1003.94 1002.58 1001.71 1001.16 1001.53 1002.47 1003.09 1003.42 1004.09 1004.64 1004.63 1005.40 1006.12 1006.83 1007.82 1009.01 1009.82 1011.06 1011.92 1012.55 1012.73 1013.06
1008.70 1008.28 1007.89 1007.90 1007.92 1007.77 1008.30 1008.71 1009.18 1009.45 1009.86 1009.23 1008.62 1008.66 1008.54 1008.40 1008.80 1008.77 1008.84 1008.63 1008.26 1007.39 1005.68 1003.87 1002.79 1002.34 1001.38 1002.28 1002.96 1003.83 1004.88 1006.10 1006.39 1007.27 1008.10 1008.67 1009.70 1009.56 1008.92 1009.68 1010.58 1011.57 1012.43 1012.76
1010.07 1009.50 1009.19 1009.44 1009.64 1009.90 1009.85 1010.09 1011.09 1011.35 1011.20 1010.55 1009.76 1008.95 1009.02 1009.13 1009.38 1009.60 1010.02 1010.20 1009.53 1008.27 1007.47 1006.00 1005.09 1004.20 1004.03 1004.48 1004.67 1004.84 1005.62 1006.28 1007.01 1007.41 1008.38 1008.63 1009.54 1010.56 1010.48 1009.32 1009.33 1010.05 1010.90 1011.55
1011.78 1011.14 1010.70 1010.46 1010.54 1010.78 1011.42 1011.78 1012.11 1012.33 1012.12 1011.95 1010.75 1009.99 1009.94 1009.64 1009.73 1010.30 1010.90 1010.77 1011.14 1010.15 1009.00 1007.80 1006.80 1006.02 1005.96 1005.94 1006.54 1006.09 1006.68 1007.12 1006.71 1007.73 1008.32 1008.69 1009.52 1010.44 1011.26 1010.82 1010.29 1009.57 1010.57 1011.47
1013.29 1013.09 1012.22 1011.46 1011.36 1012.35 1013.13 1013.47 1013.37 1013.98 1014.37 1013.49 1012.00 1011.32 1011.41 1011.60 1011.53 1011.74 1012.07 1012.04 1012.40 1011.45 1010.52 1009.42 1008.36 1007.92 1007.13 1007.07 1007.69 1007.55 1007.86 1008.05 1007.88 1007.65 1007.71 1008.02 1008.96 1010.27 1011.61 1012.28 1011.51 1010.37 1011.16 1011.56
1014.10 1014.53 1014.21 1013.23 1013.48 1013.72 1014.19 1014.59 1014.97 1015.10 1015.45 1015.33 1014.44 1013.18 1012.80 1012.79 1012.42 1012.24 1012.86 1012.77 1012.73 1011.86 1011.68 1011.04 1010.36 1009.70 1008.75 1008.23 1008.21 1008.37 1008.28 1008.18 1007.92 1008.06 1008.38 1008.24 1007.76 1007.90 1010.25 1011.29 1012.46 1011.18 1010.94 1011.61
1014.76 1015.28 1015.67 1015.38 1014.30 1014.01 1014.52 1015.72 1015.92 1016.09 1016.11 1015.77 1015.30 1014.20 1013.14 1014.04 1013.62 1013.06 1012.31 1012.32 1012.08 1012.12 1012.08 1011.82 1010.93 1010.94 1009.96 1009.31 1009.08 1009.25 1009.44 1009.03 1008.54 1007.92 1007.46 1007.51 1007.32 1007.59 1009.54 1009.70 1010.37 1011.60 1011.66 1012.01
1015.42 1016.43 1016.88 1016.37 1015.67 1015.26 1015.54 1015.83 1015.97 1016.10 1016.35 1016.07 1015.65 1014.39 1013.82 1013.78 1013.56 1012.58 1011.96 1011.60 1011.30 1011.20 1011.70 1011.60 1011.37 1011.19 1011.24 1010.55 1010.00 1010.30 1009.84 1009.25 1008.82 1008.32 1008.27 1007.74 1007.54 1007.84 1008.09 1009.14 1009.35 1010.29 1010.91 1011.09
1015.87 1017.32 1017.93 1018.06 1017.64 1017.14 1016.47 1016.02 1016.04 1016.32 1016.55 1016.42 1016.01 1015.07 1014.22 1013.67 1013.39 1012.77 1012.05 1011.61 1011.36 1011.28 1011.31 1011.48 1011.89 1011.75 1011.47 1011.93 1011.16 1010.71 1010.26 1009.64 1008.89 1008.33 1007.60 1007.87 1007.96 1007.99 1008.37 1008.56 1008.47 1008.45 1009.80 1009.52
1017.26 1018.36 1018.53 1018.41 1018.10 1017.55 1016.90 1016.33 1016.07 1016.10 1016.05 1016.14 1015.69 1015.41 1014.80 1013.90 1013.25 1012.46 1011.87 1011.37 1011.37 1011.20 1011.26 1011.26 1011.20 1011.62 1011.24 1011.16 1011.53 1011.47 1009.94 1009.72 1009.28 1008.71 1008.22 1007.57 1007.90 1008.00 1008.31 1008.44 1008.55 1009.18 1009.24 1009.78
1018.15 1018.96 1019.25 1019.20 1018.28 1017.69 1017.18 1016.48 1016.11 1015.87 1015.73 1015.77 1015.52 1015.43 1015.33 1014.57 1013.76 1012.89 1012.22 1011.55 1011.14 1010.77 1010.66 1010.71 1010.77 1011.25 1011.15 1010.77 1010.76 1010.71 1009.40 1010.27 1009.80 1009.46 1008.67 1008.26 1008.09 1008.15 1008.20 1008.20 1008.14 1008.40 1008.88 1009.50
1018.94 1019.64 1020.17 1019.72 1018.88 1018.27 1017.58 1016.63 1016.18 1015.93 1016.18 1016.22 1016.48 1016.55 1016.05 1015.12 1014.71 1014.09 1013.39 1012.10 1011.67 1011.18 1010.88 1010.49 1010.47 1010.54 1010.72 1010.46 1010.17 1009.83 1010.06 1009.84 1010.30 1009.96 1009.09 1008.16 1007.98 1008.62 1008.38 1007.96 1008.00 1007.51 1007.17 1007.73
1019.14 1020.08 1020.58 1020.42 1019.90 1019.07 1017.67 1016.91 1016.51 1016.41 1016.68 1016.82 1016.82 1016.67 1016.24 1016.12 1015.24 1014.67 1013.84 1013.21 1012.36 1011.67 1010.80 1010.65 1010.68 1010.70 1010.56 1010.07 1009.77 1009.68 1009.66 1008.95 1009.59 1010.16 1009.52 1009.02 1008.60 1008.82 1008.68 1008.58 1008.28 1007.95 1007.36 1007.61
1018.28 1019.69 1020.75 1021.04 1020.64 1019.16 1017.83 1017.64 1017.54 1017.34 1017.26 1017.16 1017.22 1016.91 1016.52 1016.16 1015.60 1014.87 1014.41 1014.08 1013.58 1012.68 1011.97 1011.03 1010.61 1010.47 1010.27 1010.23 1009.88 1009.48 1009.20 1009.02 1009.26 1009.80 1009.87 1009.56 1009.31 1009.04 1008.70 1008.27 1007.62 1006.94 1007.70 1007.71
1018.13 1019.12 1020.52 1021.22 1021.06 1019.94 1018.43 1018.04 1017.48 1017.40 1017.73 1017.57 1017.61 1017.36 1017.02 1016.60 1016.50 1015.40 1014.92 1014.63 1013.84 1013.15 1012.61 1011.95 1011.40 1010.30 1010.04 1009.84 1009.64 1009.32 1009.36 1009.36 1009.45 1010.04 1010.23 1009.97 1009.01 1008.84 1009.15 1008.71 1008.29 1007.68 1007.42 1007.25
1018.85 1019.55 1020.66 1020.88 1020.78 1019.46 1018.40 1017.66 1017.13 1017.74 1018.12 1017.64 1017.75 1017.69 1017.45 1017.29 1016.91 1015.91 1015.30 1014.54 1014.36 1013.56 1012.44 1011.76 1011.34 1010.70 1010.17 1009.65 1009.52 1009.24 1009.34 1009.44 1009.45 1009.88 1010.07 1009.67 1009.37 1009.05 1008.96 1008.84 1008.42 1007.73 1007.30 1007.27
1019.28 1019.91 1020.39 1020.50 1020.30 1019.34 1018.27 1018.00 1018.39 1018.32 1017.85 1017.99 1017.80 1017.67 1017.46 1016.97 1016.38 1015.96 1015.43 1014.70 1013.84 1013.24 1012.21 1011.41 1011.16 1010.67 1010.08 1009.38 1009.37 1009.12 1009.11 1009.20 1009.45 1009.67 1009.97 1009.80 1009.86 1009.64 1009.12 1008.78 1008.48 1007.97 1007.71 1007.49
1019.56 1019.54 1019.94 1020.02 1019.12 1018.56 1018.39 1018.40 1018.55 1018.66 1018.48 1018.04 1017.80 1017.18 1016.82 1016.27 1015.76 1015.31 1014.75 1014.30 1013.49 1012.64 1011.95 1011.23 1010.70 1010.27 1009.80 1009.49 1009.28 1009.20 1009.00 1008.91 1008.89 1009.19 1009.57 1009.94 1009.76 1009.73 1010.04 1009.39 1008.94 1008.58 1007.97 1007.94
1019.73 1019.37 1019.61 1019.76 1018.66 1018.61 1018.40 1018.32 1018.30 1018.34 1018.10 1017.58 1017.15 1016.62 1016.16 1015.59 1014.98 1014.47 1013.96 1013.30 1012.71 1011.93 1011.18 1010.73 1010.06 1009.54 1009.29 1008.80 1008.55 1008.58 1008.74 1008.52 1008.86 1009.22 1009.78 1010.01 1009.89 1010.02 1010.36 1010.12 1009.90 1009.52 1008.90 1008.61
1020.03 1019.54 1019.41 1019.18 1018.56 1018.28 1017.94 1017.74 1017.67 1017.51 1017.25 1016.75 1016.17 1015.87 1015.46 1014.85 1014.12 1013.73 1013.12 1012.44 1011.78 1011.20 1010.55 1009.99 1009.41 1009.12 1008.66 1008.34 1008.04 1007.88 1007.98 1008.28 1008.44 1008.66 1009.26 1009.82 1010.05 1010.16 1010.56 1010.77 1010.36 1010.22 1009.63 1009.78
1018.92 1018.66 1018.92 1018.64 1018.32 1018.37 1018.03 1017.32 1017.20 1017.12 1016.42 1015.79 1015.38 1014.64 1014.30 1014.02 1013.37 1012.86 1012.08 1011.30 1010.62 1010.11 1009.86 1009.57 1009.06 1008.57 1008.69 1008.16 1007.72 1007.48 1007.45 1007.73 1007.94 1008.32 1009.14 1009.67 1010.18 1010.24 1010.62 1010.90 1010.22 1009.99 1009.83 1009.65
Wind_Speed
3 2 7 10 9 9 7 6 7 9 14 4 9 8 11 11 6 10 12 11 10 9 10 6 12 17 18 19 22 22 19 19 15 12 12 8 8 6 4 7 10 8 7 7
4 7 12 8 9 8 9 9 13 10 12 8 9 8 9 6 7 7 9 9 10 6 6 5 10 16 21 22 24 23 21 20 16 12 10 8 8 5 8 6 7 8 8 8
8 10 11 12 12 11 13 13 14 16 16 6 5 8 4 8 4 7 8 7 6 9 9 7 11 18 19 23 22 22 23 21 16 14 8 5 5 6 4 4 4 5 8 8
7 10 11 12 10 12 13 11 16 10 4 6 4 12 5 6 10 5 9 9 11 11 7 7 11 15 19 22 21 23 22 23 19 18 16 17 11 12 8 9 4 5 7 7
7 4 7 7 7 5 10 11 15 13 7 5 3 2 8 4 9 11 10 9 10 10 10 11 13 20 22 20 20 21 22 20 16 18 18 14 13 9 9 7 9 5 6 7
6 3 3 5 7 4 6 5 3 1 2 9 6 6 2 3 5 9 12 18 21 21 17 14 9 17 20 18 16 16 17 17 18 19 17 19 17 11 12 10 10 7 5 5
3 3 1 6 6 8 10 7 5 5 2 7 8 3 7 6 10 10 14 16 17 20 22 20 19 6 16 17 14 8 6 6 8 7 7 5 3 7 19 18 12 12 8 4
2 1 5 9 5 3 4 3 3 5 2 5 5 5 4 4 6 11 15 10 16 22 20 23 23 17 11 10 9 9 10 10 9 9 7 6 7 2 7 14 14 11 12 12
4 2 4 16 7 6 7 6 7 4 3 1 5 2 2 7 10 12 14 16 16 17 20 19 21 20 18 9 8 6 10 6 10 8 7 7 5 3 6 7 8 10 8 9
2 3 6 6 6 13 7 8 6 5 5 4 4 3 1 7 8 8 13 10 9 14 19 21 19 17 16 18 8 8 7 5 5 2 7 8 7 3 3 7 9 4 2 6
2 3 5 5 6 6 3 3 4 2 5 2 4 5 2 2 1 3 5 4 6 11 12 15 17 17 13 14 14 13 8 9 7 5 7 8 12 20 10 9 11 6 5 7
2 4 0 2 6 7 2 5 4 4 5 4 5 7 4 5 6 4 4 3 2 7 5 9 13 15 17 12 11 8 6 7 7 8 6 5 7 6 14 19 13 5 6 5
3 2 3 7 7 6 3 7 5 4 1 3 2 5 5 3 5 5 4 6 5 2 7 7 10 14 16 10 9 7 7 7 6 3 8 6 6 11 12 11 9 9 8 7
6 3 6 5 5 3 8 8 8 2 1 2 5 6 12 5 7 7 8 8 8 4 3 5 5 5 8 12 12 5 8 8 9 7 9 10 11 10 6 11 11 15 11 10
5 1 0 2 5 5 8 11 8 9 7 4 6 4 7 13 8 9 12 6 7 7 5 5 5 5 5 7 4 6 6 7 7 10 11 5 6 5 5 8 5 8 12 12
2 1 4 4 6 6 9 11 9 7 6 7 7 3 9 7 12 15 14 9 8 9 8 8 7 6 4 3 0 1 7 6 6 6 8 6 3 3 4 6 5 10 11 9
5 5 3 6 4 6 7 4 4 5 5 2 4 3 7 12 16 11 14 14 8 9 6 5 7 5 5 3 3 3 1 3 4 4 5 7 6 5 7 8 6 11 17 19
7 5 4 5 4 2 4 6 4 5 6 4 1 4 5 5 11 4 12 13 14 16 3 3 2 1 2 1 4 3 3 5 4 4 4 4 5 3 9 11 11 6 5 10
8 6 1 3 3 6 1 5 4 2 2 4 4 7 8 9 5 7 11 14 8 9 10 3 2 2 3 1 2 4 5 4 5 3 5 5 3 3 3 11 10 6 6 11
5 4 5 2 3 5 3 3 8 3 6 4 5 6 6 6 7 7 12 14 16 13 8 7 10 6 4 5 1 4 4 3 2 2 1 4 5 5 5 4 6 10 8 8
2 3 3 3 3 7 1 7 5 3 6 7 5 5 5 5 5 12 16 16 12 14 15 10 8 6 8 7 2 1 1 2 3 5 2 4 6 6 5 5 4 7 9 6
4 4 4 2 2 7 3 3 1 4 4 6 8 6 12 16 17 15 16 15 17 16 18 14 7 7 8 7 4 5 4 5 3 7 5 4 5 5 6 6 6 5 4 8
1 4 3 7 7 3 3 6 3 3 9 10 11 12 13 15 15 17 15 16 16 18 13 15 12 9 7 6 3 3 7 5 4 6 6 4 5 5 6 5 6 4 4 2
5 1 1 3 3 0 5 3 4 5 8 11 12 15 14 16 16 16 16 14 14 15 15 14 13 9 8 8 6 6 7 6 6 8 7 5 5 4 7 5 4 3 3 3
6 2 3 4 6 6 2 5 8 8 9 12 13 12 14 15 16 15 15 16 14 14 12 13 13 10 8 7 7 8 6 4 5 5 6 5 4 4 3 3 4 4 3 2
5 6 5 6 5 5 7 11 8 10 14 16 15 15 12 15 15 15 15 15 13 12 10 10 10 5 10 8 7 7 7 8 7 5 5 6 6 6 4 2 2 9 11 14
Wind_Direction
238 144 229 236 219 221 234 235 249 266 274 211 250 257 266 276 299 265 252 241 245 244 252 243 179 171 166 166 164 171 166 177 172 170 163 159 151 153 135 159 164 152 144 145
6 231 230 227 236 238 244 253 272 281 261 182 266 262 264 280 263 256 253 243 230 228 260 267 182 178 166 169 177 175 175 174 175 176 168 160 150 146 159 156 161 156 150 153
191 242 227 228 252 249 249 240 251 244 268 283 283 287 311 303 292 291 279 256 257 243 247 262 175 188 181 173 175 177 181 180 177 166 144 107 90 103 117 159 150 175 155 159
214 257 244 249 239 245 251 238 238 237 197 247 215 275 300 270 296 293 298 301 284 282 235 224 180 182 197 188 180 180 182 183 180 169 167 163 169 167 176 166 146 163 160 153
240 261 290 291 236 247 243 265 260 253 223 177 290 28 266 3 323 299 289 290 286 276 256 238 192 181 194 193 189 188 187 187 173 177 179 176 174 168 146 147 147 148 154 152
216 253 214 253 306 7 312 298 276 18 147 253 208 171 257 248 281 316 337 9 11 5 354 352 237 189 187 191 196 192 188 191 178 180 179 183 174 156 146 151 156 164 162 162
341 277 304 15 7 359 21 40 335 320 310 231 215 186 222 73 33 39 58 33 21 12 10 21 17 253 184 190 185 164 134 81 76 64 43 12 33 196 165 165 162 161 173 166
121 79 32 11 77 298 317 108 157 281 265 289 295 214 188 76 85 73 50 33 24 24 12 23 25 30 40 38 56 78 96 91 97 92 89 84 107 214 215 184 168 167 179 191
55 252 6 44 19 34 330 45 279 251 272 224 243 81 19 24 29 44 47 35 21 16 17 23 18 28 44 33 343 133 134 121 120 115 94 75 105 194 260 236 201 169 191 208
338 326 19 348 61 31 32 308 347 15 337 293 300 348 95 11 346 32 34 25 26 29 23 21 17 18 21 35 20 23 14 357 306 122 152 143 150 193 313 301 259 182 237 232
81 134 298 31 34 313 7 348 303 144 168 217 328 293 18 177 228 11 43 14 6 41 28 27 12 3 27 33 27 24 12 343 305 236 230 231 190 171 171 250 266 249 200 235
317 131 56 224 262 290 238 38 10 101 292 199 194 260 91 0 346 333 32 347 151 122 65 19 31 2 358 32 19 22 23 351 307 301 285 244 268 228 200 206 196 259 256 272
288 40 12 353 4 20 67 329 318 277 87 254 148 262 151 193 257 235 211 251 263 46 104 91 51 21 5 347 31 348 346 357 337 281 237 242 203 214 203 198 193 186 196 194
71 76 136 178 207 285 303 329 345 16 252 227 242 281 310 264 254 261 275 270 289 340 105 116 118 120 66 2 342 357 338 334 336 336 336 198 195 187 209 213 214 182 189 200
87 76 58 260 283 295 307 318 310 311 269 250 273 284 311 305 298 258 249 260 245 243 204 234 214 203 173 150 181 287 354 335 327 343 15 163 150 145 197 251 238 243 230 207
3 253 39 288 281 288 294 288 278 280 290 319 298 303 359 322 355 359 341 269 226 240 232 203 222 203 163 126 78 329 36 346 341 2 4 76 247 187 170 166 196 218 203 199
142 153 114 259 285 328 314 296 289 253 59 296 59 279 341 356 350 360 341 13 317 278 254 237 221 184 214 158 169 51 14 70 353 3 4 21 59 322 247 236 232 218 182 181
155 138 142 268 32 262 228 31 22 318 88 75 189 344 14 345 321 291 12 359 354 354 303 291 340 359 187 336 26 342 344 42 78 350 18 24 24 9 255 255 251 244 197 220
178 133 182 150 191 278 297 27 356 332 307 12 356 340 338 345 318 289 6 351 331 326 326 280 246 258 280 25 349 35 31 32 34 71 356 346 9 328 346 272 278 282 226 210
98 85 134 130 127 247 198 293 286 281 251 20 345 310 325 353 326 280 341 334 320 320 304 314 295 255 241 265 203 51 33 20 49 185 116 323 356 0 327 303 308 248 240 223
34 76 182 219 224 270 328 295 302 205 254 333 347 325 319 291 239 296 309 306 302 299 304 299 301 289 280 294 226 77 353 320 257 144 76 31 11 344 329 323 272 286 242 217
171 154 215 77 73 276 328 21 175 262 324 328 304 307 296 295 291 289 290 293 299 295 296 298 290 292 283 291 305 316 323 262 154 128 107 35 24 2 341 340 325 340 268 228
15 160 207 172 222 191 186 207 72 354 303 302 298 298 291 291 290 290 286 289 287 288 285 288 284 277 279 277 270 303 275 282 186 136 133 120 55 13 345 356 345 346 0 331
321 327 195 11 302 117 265 174 199 238 283 288 280 288 286 286 288 291 287 280 279 276 277 279 277 266 266 273 273 221 262 260 197 154 147 139 104 56 359 354 359 358 11 334
210 327 218 267 274 332 218 315 310 297 276 277 278 277 289 289 286 290 286 280 272 266 270 283 286 278 263 274 278 278 271 216 195 170 146 146 114 111 72 347 22 350 54 350
194 193 165 227 209 197 255 268 257 275 284 284 278 281 289 295 289 291 285 278 271 267 256 264 259 261 274 253 253 267 261 187 182 157 171 152 155 155 141 254 60 40 31 35